Weather History for Montreal Mirabel, QC

Change the Weather History Date:

Monday, May 13, 2013

  Actual Average Record
Temperature  
Mean Temperature 42 °F -  
Max Temperature 50 °F 62 °F 75 °F (2011)
Min Temperature 35 °F 42 °F 26 °F (2005)
Degree Days  
Heating Degree Days 22    
Moisture  
Dew Point 30 °F    
Average Humidity 67    
Maximum Humidity 87    
Minimum Humidity 43    
Precipitation  
Precipitation 0.00 in - - ()
Sea Level Pressure  
Sea Level Pressure 29.81 in    
Wind  
Wind Speed 12 mph ()    
Max Wind Speed 23 mph    
Max Gust Speed 33 mph    
Visibility 20.0 miles    
Events Rain    
Averages and records for this station are not official NWS values.
T = Trace of Precipitation, MM = Missing Value Source: Averaged Metar Reports

Daily Weather History Graph

Daily Weather History Graph

Search for Another Location

Airport:

Trip Planner

Search our weather history database for the weather conditions in past years. The results will help you decide how hot, cold, wet, or windy it might be!

Date:

Astronomy

May. 13, 2013 Rise Set
Actual Time 5:27 AM EDT 8:18 PM EDT
Civil Twilight 4:52 AM EDT 8:53 PM EDT
Nautical Twilight 4:08 AM EDT 9:37 PM EDT
Astronomical Twilight 3:16 AM EDT 10:29 PM EDT
Moon 8:09 AM EDT (5/13) 11:26 PM EDT (5/13)
Length of Visible Light 16h 00m
Length of Day
14h 51m
Waxing Crescent, 12% of the Moon is Illuminated
May 13
Waxing Crescent
May 18
First Quarter
May 25
Full
May 31
Last Quarter
Jun 8
New

Hourly Weather History & Observations

Time (EDT) Temp. Windchill Dew Point Humidity Pressure Visibility Wind Dir Wind Speed Gust Speed Precip Events Conditions
12:00 AM 39.2 °F 31.2 °F 33.8 °F 81% 29.68 in 25.0 mi SSW 13.8 mph 20.7 mph N/A   Mostly Cloudy
1:00 AM 37.4 °F 28.9 °F 30.2 °F 75% 29.69 in 25.0 mi SW 13.8 mph 26.5 mph N/A   Mostly Cloudy
2:00 AM 37.4 °F 29.3 °F 30.2 °F 75% 29.68 in 25.0 mi SW 12.7 mph 21.9 mph N/A   Mostly Cloudy
2:43 AM 37.4 °F 28.9 °F 30.2 °F 75% 29.69 in 25.0 mi SW 13.8 mph 25.3 mph N/A Rain Light Rain Showers
3:00 AM 35.6 °F 26.6 °F 30.2 °F 81% 29.69 in 25.0 mi SW 13.8 mph 25.3 mph N/A Rain Light Rain Showers
4:00 AM 35.6 °F 27.1 °F 32.0 °F 87% 29.69 in 20.0 mi SW 12.7 mph 26.5 mph N/A Rain Light Rain Showers
5:00 AM 37.4 °F 28.9 °F 32.0 °F 81% 29.69 in 25.0 mi SW 13.8 mph 23.0 mph N/A   Light Drizzle
5:45 AM 37.4 °F 28.2 °F 30.2 °F 75% 29.70 in 20.0 mi SW 16.1 mph 28.8 mph N/A Rain Light Rain Showers
6:00 AM 37.4 °F 27.8 °F 30.2 °F 75% 29.71 in 30.0 mi SW 17.3 mph 29.9 mph N/A   Overcast
6:22 AM 39.2 °F 30.2 °F 30.2 °F 70% 29.72 in 30.0 mi WSW 17.3 mph 29.9 mph N/A   Mostly Cloudy
7:00 AM 37.4 °F 28.5 °F 32.0 °F 81% 29.73 in 30.0 mi WSW 15.0 mph 25.3 mph N/A   Mostly Cloudy
7:10 AM 37.4 °F 28.5 °F 32.0 °F 81% 29.73 in 25.0 mi SW 15.0 mph 24.2 mph N/A Rain Light Rain Showers
8:00 AM 39.2 °F 30.8 °F 33.8 °F 81% 29.75 in 25.0 mi WSW 15.0 mph 26.5 mph N/A Rain Light Rain Showers
9:00 AM 41.0 °F 33.9 °F 32.0 °F 70% 29.77 in 25.0 mi WSW 12.7 mph 25.3 mph N/A   Overcast
10:00 AM 42.8 °F 35.1 °F 32.0 °F 66% 29.79 in 30.0 mi West 16.1 mph 26.5 mph N/A   Mostly Cloudy
10:19 AM 42.8 °F 35.4 °F 30.2 °F 61% 29.81 in 30.0 mi West 15.0 mph 28.8 mph N/A   Overcast
11:00 AM 42.8 °F 35.8 °F 30.2 °F 61% 29.82 in 30.0 mi WSW 13.8 mph 26.5 mph N/A   Mostly Cloudy
12:00 PM 44.6 °F 37.8 °F 30.2 °F 57% 29.84 in 45.0 mi WSW 15.0 mph 27.6 mph N/A   Mostly Cloudy
1:00 PM 46.4 °F 39.8 °F 30.2 °F 53% 29.86 in 45.0 mi SW 16.1 mph 28.8 mph N/A   Mostly Cloudy
1:50 PM 44.6 °F 35.9 °F 30.2 °F 57% 29.88 in 45.0 mi SSW 23.0 mph 33.4 mph N/A Rain Light Rain Showers
2:00 PM 42.8 °F 35.8 °F 32.0 °F 66% 29.89 in 45.0 mi SW 13.8 mph 29.9 mph N/A Rain Light Rain Showers
3:00 PM 50.0 °F - 32.0 °F 50% 29.89 in 45.0 mi West 12.7 mph 26.5 mph N/A   Mostly Cloudy
5:00 PM 48.2 °F - 26.6 °F 43% 29.91 in 45.0 mi WSW 12.7 mph 33.4 mph N/A   Mostly Cloudy
6:00 PM 48.2 °F - 26.6 °F 43% 29.93 in 45.0 mi West 9.2 mph 21.9 mph N/A   Mostly Cloudy
7:00 PM 48.2 °F - 26.6 °F 43% 29.96 in 45.0 mi WNW 10.4 mph 23.0 mph N/A   Mostly Cloudy
8:00 PM 44.6 °F 41.4 °F 26.6 °F 49% 29.99 in 25.0 mi WNW 5.8 mph - N/A   Scattered Clouds
9:00 PM 41.0 °F - 26.6 °F 57% 30.01 in 25.0 mi NNW 2.3 mph - N/A   Partly Cloudy
10:00 PM 39.2 °F 35.9 °F 28.4 °F 65% 30.04 in 25.0 mi North 4.6 mph - N/A   Partly Cloudy
11:00 PM 35.6 °F 32.8 °F 30.2 °F 81% 30.04 in 25.0 mi NW 3.5 mph - N/A   Partly Cloudy